DW9349 Weather Reports


time (UTC)temp
F
wind
direction
speed
knots
gust
knots
rain 1hr
in
rain 24hr
in
rain mn
in
humidity
%
barometer
mb
20260502163214 70 0 0.0 0.0 0.01 0.38 0.09 100 1019.8
20260502162503 70 0 0.0 0.0 0.01 0.38 0.09 100 1019.8
20260502162003 69 0 0.0 0.0 0.00 0.38 0.08 100 1019.7
20260502161504 69 0 0.0 0.0 0.00 0.38 0.08 100 1019.9
20260502161004 69 0 0.0 0.0 0.01 0.38 0.08 100 1019.7
20260502160504 69 0 0.0 0.0 0.01 0.39 0.08 100 1019.6
20260502160217 69 0 0.0 0.0 0.01 0.39 0.08 100 1019.5
20260502152003 67 0 0.0 0.0 0.01 0.42 0.08 100 1019.5
20260502151503 66 0 0.0 0.0 0.01 0.42 0.08 100 1019.5
20260502151004 66 0 0.0 0.0 0.00 0.42 0.07 100 1019.6
20260502150503 66 0 0.0 0.0 0.01 0.42 0.07 100 1019.6
20260502130503 59 0 0.0 0.0 0.01 0.46 0.06 100 1018.5
20260502123503 57 0 0.0 0.0 0.00 0.45 0.05 100 1018.1
20260502123003 57 0 0.0 0.0 0.00 0.45 0.05 100 1018.1
20260502122503 57 0 0.0 0.0 0.00 0.45 0.05 100 1018.0
20260502122218 57 0 0.0 0.0 0.00 0.45 0.05 100 1017.9
20260502121716 56 0 0.0 0.0 0.00 0.45 0.05 100 1017.8
20260502121003 56 0 0.0 0.0 0.00 0.45 0.05 100 1017.7
20260502120716 56 0 0.0 0.0 0.00 0.45 0.05 100 1017.6
20260502115718 56 0 0.0 0.0 0.00 0.45 0.05 100 1017.3
20260502115003 56 0 0.0 0.0 0.00 0.45 0.05 100 1017.2
20260502114713 56 0 0.0 0.0 0.00 0.45 0.05 100 1017.2
20260502114003 56 0 0.0 0.0 0.00 0.45 0.05 100 1017.0
20260502113504 56 0 0.0 0.0 0.00 0.45 0.05 100 1017.0
20260502113004 56 0 0.0 0.0 0.00 0.45 0.05 100 1017.0
20260502112503 56 0 0.0 0.0 0.00 0.45 0.05 100 1016.9
20260502112004 56 0 0.0 0.0 0.00 0.45 0.05 100 1016.8
20260502111503 56 0 0.0 0.0 0.00 0.45 0.05 100 1016.7
20260502111004 56 0 0.0 0.0 0.00 0.45 0.05 100 1016.7
20260502110717 56 0 0.0 0.0 0.00 0.45 0.05 100 1016.7
20260502110004 56 0 0.0 0.0 0.00 0.45 0.05 100 1016.5
20260502105503 56 0 0.0 0.0 0.00 0.45 0.05 100 1016.5
20260502105004 56 0 0.0 0.0 0.00 0.45 0.05 100 1016.5
20260502104714 56 0 0.0 0.0 0.00 0.45 0.05 100 1016.5
20260502104004 56 0 0.0 0.0 0.00 0.45 0.05 100 1016.5
20260502103504 56 0 0.0 0.0 0.00 0.45 0.05 100 1016.3
20260502103004 56 0 0.0 0.0 0.00 0.45 0.05 100 1016.3
20260502102503 56 0 0.0 0.0 0.00 0.45 0.05 100 1016.0
20260502102004 56 0 0.0 0.0 0.00 0.45 0.05 100 1016.0
20260502101503 56 0 0.0 0.0 0.00 0.45 0.05 100 1016.0
20260502101003 56 0 0.0 0.0 0.01 0.45 0.05 100 1016.0
20260502100503 56 0 0.0 0.0 0.01 0.45 0.05 100 1016.0
20260502091504 56 0 0.0 0.0 0.01 0.45 0.05 100 1015.1
20260502091004 57 0 0.0 0.0 0.00 0.44 0.04 100 1015.1
20260502090504 57 0 0.0 0.0 0.01 0.44 0.04 100 1015.0
20260502090216 57 0 0.0 0.0 0.01 0.44 0.04 100 1014.9
20260502071504 58 0 0.0 0.0 0.02 0.43 0.03 100 1014.8
20260502071004 58 0 0.0 0.0 0.02 0.43 0.03 100 1014.9
20260502070504 58 0 0.0 0.0 0.01 0.42 0.02 100 1014.9
20260502070003 58 0 0.0 0.0 0.01 0.42 0.02 100 1014.7
20260502065504 58 0 0.0 0.0 0.01 0.42 0.02 100 1014.8
20260502065003 58 0 0.0 0.0 0.01 0.42 0.02 100 1014.7
20260502064504 58 0 0.0 0.0 0.01 0.42 0.02 100 1014.7
20260502064004 58 0 0.0 0.0 0.01 0.42 0.02 100 1014.7
20260502063503 58 0 0.0 0.0 0.01 0.42 0.02 100 1014.8
20260502063215 58 0 0.0 0.0 0.01 0.42 0.02 100 1014.8
20260502062504 58 0 0.0 0.0 0.02 0.42 0.02 100 1014.7
20260502062004 58 0 0.0 0.0 0.02 0.42 0.02 100 1014.6
20260502061504 58 0 0.0 0.0 0.01 0.41 0.01 100 1014.6
20260502061004 58 0 0.0 0.0 0.01 0.41 0.01 100 1014.7
20260502060715 58 0 0.0 0.0 0.01 0.41 0.01 100 1014.5
20260502060004 58 0 0.0 0.0 0.01 0.41 0.01 100 1014.5
20260502055503 58 0 0.0 0.0 0.01 0.41 0.01 100 1014.6
20260502055003 58 0 0.0 0.0 0.01 0.41 0.01 100 1014.6
20260502054504 58 0 0.0 0.0 0.01 0.41 0.01 100 1014.6
20260502054004 58 0 0.0 0.0 0.01 0.41 0.01 100 1014.5
20260502053504 58 0 0.0 0.0 0.02 0.41 0.01 100 1014.6
20260502053216 58 0 0.0 0.0 0.02 0.41 0.01 100 1014.7
20260502052714 58 0 0.0 0.0 0.02 0.41 0.01 100 1014.8
20260502052004 58 0 0.0 0.0 0.01 0.40 0.00 100 1014.7
20260502051503 57 0 0.0 0.0 0.01 0.40 0.00 100 1014.7
20260502051003 57 0 0.0 0.0 0.01 0.40 0.00 100 1014.7
20260502050503 57 0 0.0 0.0 0.01 0.40 0.00 100 1014.7
20260502050005 58 0 0.0 0.0 0.01 0.40 0.00 100 1014.7
20260502045717 58 0 0.0 0.0 0.02 0.40 0.40 100 1014.7
20260502044504 58 0 0.0 0.0 0.02 0.40 0.40 100 1014.8
20260502044003 58 0 0.0 0.0 0.02 0.40 0.40 100 1014.8
20260502043504 58 0 0.0 0.0 0.01 0.39 0.39 100 1014.8
20260502043217 58 0 0.0 0.0 0.01 0.39 0.39 100 1014.7
20260502042503 58 0 0.0 0.0 0.01 0.39 0.39 100 1014.7
20260502042004 58 0 0.0 0.0 0.01 0.39 0.39 100 1014.6
20260502041504 58 0 0.0 0.0 0.02 0.39 0.39 100 1014.6
20260502041005 58 0 0.0 0.0 0.02 0.39 0.39 100 1014.6
20260502040503 58 0 0.0 0.0 0.02 0.39 0.39 100 1014.6
20260502040004 59 0 0.0 0.0 0.02 0.39 0.39 100 1014.4
20260502035504 59 0 0.0 0.0 0.01 0.38 0.38 100 1014.6
20260502035004 59 0 0.0 0.0 0.01 0.38 0.38 100 1014.2
20260502034504 59 0 0.0 0.0 0.01 0.38 0.38 100 1014.1
20260502034004 59 0 0.0 0.0 0.02 0.38 0.38 100 1014.0
20260502033714 59 0 0.0 0.0 0.02 0.38 0.38 100 1013.9
20260502033217 59 0 0.0 0.0 0.02 0.38 0.38 100 1013.7
20260502032503 60 0 0.0 0.0 0.02 0.38 0.38 100 1013.8
20260502032218 60 0 0.0 0.0 0.02 0.38 0.38 100 1013.6
20260502031504 60 0 0.0 0.0 0.01 0.37 0.37 100 1013.1
20260502031003 60 0 0.0 0.0 0.01 0.37 0.37 100 1012.9
20260502030504 60 0 0.0 0.0 0.02 0.37 0.37 100 1012.7
20260502030004 60 0 0.0 0.0 0.02 0.38 0.37 100 1013.0
20260502025504 60 0 0.0 0.0 0.02 0.40 0.37 100 1013.0
20260502025004 60 0 0.0 0.0 0.02 0.41 0.37 100 1012.8
20260502024504 60 0 0.0 0.0 0.02 0.42 0.37 100 1012.9
20260502024004 60 0 0.0 0.0 0.01 0.42 0.36 100 1012.8
20260502023503 60 0 0.0 0.0 0.02 0.43 0.36 100 1013.2
20260502023004 60 0 0.0 0.0 0.02 0.44 0.36 100 1013.4
20260502022716 60 0 0.0 0.0 0.02 0.45 0.36 100 1013.2
20260502022003 60 0 0.0 0.0 0.02 0.46 0.36 100 1012.9
20260502021504 60 0 0.0 0.0 0.02 0.47 0.36 100 1012.9
20260502021004 60 0 0.0 0.0 0.02 0.48 0.36 100 1012.7
20260502020504 60 0 0.0 0.0 0.02 0.48 0.35 100 1012.7
20260502020004 61 0 0.0 0.0 0.02 0.50 0.35 100 1012.7
20260502015714 61 0 0.0 0.0 0.02 0.50 0.35 100 1012.5
20260502015004 61 0 0.0 0.0 0.02 0.52 0.35 100 1012.5
20260502014504 61 0 0.0 0.0 0.02 0.53 0.35 100 1012.5
20260502014003 61 0 0.0 0.0 0.02 0.54 0.35 100 1012.2
20260502013716 61 0 0.0 0.0 0.01 0.54 0.34 100 1012.1
20260502013003 61 0 0.0 0.0 0.02 0.55 0.34 100 1012.1
20260502012504 61 0 0.0 0.0 0.02 0.57 0.34 100 1011.8
20260502012004 61 0 0.0 0.0 0.02 0.58 0.34 100 1011.7
20260502011717 61 0 0.0 0.0 0.02 0.59 0.34 100 1011.2
20260502011004 61 0 0.0 0.0 0.02 0.61 0.34 100 1010.5
20260502010503 61 0 0.0 0.0 0.02 0.61 0.33 100 1010.4
20260502010216 61 0 0.0 0.0 0.02 0.61 0.33 100 1010.5
20260502005504 61 0 0.0 0.0 0.02 0.63 0.33 100 1010.7
20260502005217 61 0 0.0 0.0 0.02 0.64 0.33 100 1010.7
20260502004504 61 0 0.0 0.0 0.02 0.66 0.33 100 1011.1
20260502004004 61 0 0.0 0.0 0.02 0.67 0.33 100 1011.0
20260502003503 61 0 0.0 0.0 0.02 0.66 0.32 100 1010.5
20260502003003 61 0 0.0 0.0 0.02 0.66 0.32 100 1009.9
20260502002504 61 0 0.0 0.0 0.02 0.66 0.32 100 1009.9
20260502002005 62 0 0.0 0.0 0.02 0.66 0.32 100 1009.9
20260502001503 62 0 0.0 0.0 0.02 0.66 0.32 100 1009.3
20260502001003 62 0 0.0 0.0 0.03 0.66 0.32 100 1009.0
20260502000504 62 0 0.0 0.0 0.02 0.65 0.31 100 1009.0
20260502000218 62 0 0.0 0.0 0.02 0.65 0.31 100 1009.0
20260501235504 62 0 0.0 0.0 0.02 0.65 0.31 100 1010.0
20260501235004 63 0 0.0 0.0 0.02 0.65 0.31 100 1009.9
20260501234716 63 0 0.0 0.0 0.02 0.65 0.31 100 1009.7
20260501234003 63 0 0.0 0.0 0.03 0.65 0.31 100 1008.9
20260501233503 63 0 0.0 0.0 0.02 0.64 0.30 100 1008.8
20260501233004 63 0 0.0 0.0 0.02 0.64 0.30 100 1008.7
20260501232503 64 0 0.0 0.0 0.02 0.64 0.30 100 1008.6
20260501232004 64 0 0.0 0.0 0.02 0.64 0.30 100 1008.9
20260501231504 64 0 0.0 0.0 0.03 0.64 0.30 100 1008.3
20260501231004 64 0 0.0 0.0 0.02 0.63 0.29 100 1008.5
20260501230504 64 0 0.0 0.0 0.02 0.63 0.29 100 1008.4
20260501230003 64 0 0.0 0.0 0.02 0.63 0.29 100 1008.8
20260501225715 64 0 0.0 0.0 0.02 0.63 0.29 100 1008.7
20260501225005 64 0 0.0 0.0 0.03 0.63 0.29 100 1009.1
20260501224504 64 0 0.0 0.0 0.03 0.63 0.29 100 1009.1
20260501224003 64 0 0.0 0.0 0.02 0.62 0.28 100 1009.2
20260501223712 64 0 0.0 0.0 0.02 0.62 0.28 100 1009.2
20260501223003 64 0 0.0 0.0 0.03 0.62 0.28 100 1010.0
20260501222503 64 0 0.0 0.0 0.03 0.62 0.28 100 1010.2
20260501222003 64 0 0.0 0.0 0.03 0.62 0.28 100 1010.3
20260501221503 64 0 0.0 0.0 0.02 0.61 0.27 100 1010.3
20260501221004 64 0 0.0 0.0 0.02 0.61 0.27 100 1010.0
20260501220503 64 0 0.0 0.0 0.03 0.61 0.27 100 1009.9
20260501215503 64 0 0.0 0.0 0.02 0.60 0.26 100 1009.5
20260501215004 64 0 0.0 0.0 0.02 0.60 0.26 100 1009.2
20260501214717 64 0 0.0 0.0 0.02 0.60 0.26 100 1008.8
20260501214004 64 0 0.0 0.0 0.03 0.60 0.26 100 1008.6
20260501213504 64 0 0.0 0.0 0.03 0.60 0.26 100 1009.4
20260501213004 64 0 0.0 0.0 0.02 0.59 0.25 100 1009.5
20260501212503 64 0 0.0 0.0 0.02 0.59 0.25 100 1008.8
20260501212003 64 0 0.0 0.0 0.02 0.59 0.25 100 1010.0
20260501211503 64 0 0.0 0.0 0.03 0.59 0.25 100 1009.5
20260501211218 64 0 0.0 0.0 0.03 0.59 0.25 100 1008.9
20260501210716 64 0 0.0 0.0 0.02 0.58 0.24 100 1009.4
20260501210214 64 0 0.0 0.0 0.02 0.58 0.24 100 1009.1
20260501205504 64 0 0.0 0.0 0.02 0.58 0.24 100 1008.9
20260501205003 65 0 0.0 0.0 0.03 0.58 0.24 100 1008.6
20260501204505 65 0 0.0 0.0 0.03 0.58 0.24 100 1008.7
20260501204003 65 0 0.0 0.0 0.02 0.57 0.23 100 1008.5
20260501203504 65 0 0.0 0.0 0.02 0.57 0.23 100 1008.4
20260501203003 65 0 0.0 0.0 0.03 0.57 0.23 100 1007.6
20260501202503 65 0 0.0 0.0 0.03 0.57 0.23 100 1008.1
20260501202004 65 0 0.0 0.0 0.03 0.57 0.23 100 1009.8
20260501201715 65 0 0.0 0.0 0.02 0.56 0.22 100 1009.7
20260501201003 65 0 0.0 0.0 0.02 0.56 0.22 100 1007.8
20260501200503 65 0 0.0 0.0 0.03 0.56 0.22 100 1007.2
20260501200005 65 0 0.0 0.0 0.03 0.56 0.22 100 1007.6
20260501195504 66 0 0.0 0.0 0.03 0.56 0.22 100 1008.2
20260501195004 66 0 0.0 0.0 0.02 0.55 0.21 100 1008.6
20260501194718 66 0 0.0 0.0 0.02 0.55 0.21 100 1008.6
20260501194003 66 0 0.0 0.0 0.03 0.55 0.21 100 1008.7
20260501193503 66 0 0.0 0.0 0.03 0.55 0.21 100 1008.5
20260501193003 66 0 0.0 0.0 0.02 0.54 0.20 100 1008.2
20260501192504 66 0 0.0 0.0 0.02 0.54 0.20 100 1008.1
20260501192005 66 0 0.0 0.0 0.03 0.54 0.20 100 1008.6
20260501191504 66 0 0.0 0.0 0.03 0.54 0.20 100 1008.4
20260501191214 66 0 0.0 0.0 0.03 0.54 0.20 100 1008.6
20260501190503 66 0 0.0 0.0 0.02 0.53 0.19 100 1008.9
20260501190005 66 0 0.0 0.0 0.03 0.53 0.19 100 1008.6
20260501185503 66 0 0.0 0.0 0.03 0.53 0.19 100 1008.8
20260501185004 66 0 0.0 0.0 0.03 0.53 0.19 100 1008.8
20260501184504 66 0 0.0 0.0 0.03 0.52 0.18 100 1008.9
20260501184003 66 0 0.0 0.0 0.03 0.52 0.18 100 1008.9
20260501183504 66 0 0.0 0.0 0.03 0.52 0.18 100 1008.9
20260501183004 66 0 0.0 0.0 0.03 0.52 0.18 100 1008.8
20260501182503 66 0 0.0 0.0 0.04 0.52 0.18 100 1009.0
20260501182004 66 0 0.0 0.0 0.03 0.51 0.17 100 1008.9
20260501181503 66 0 0.0 0.0 0.03 0.51 0.17 100 1008.9
20260501181003 66 0 0.0 0.0 0.04 0.51 0.17 100 1008.8
20260501180505 66 0 0.0 0.0 0.04 0.51 0.17 100 1008.7
20260501180004 66 0 0.0 0.0 0.03 0.50 0.16 100 1008.7
20260501175504 65 0 0.0 0.0 0.04 0.50 0.16 100 1008.9
20260501175004 65 0 0.0 0.0 0.04 0.50 0.16 100 1009.2
20260501174504 65 0 0.0 0.0 0.03 0.49 0.15 100 1009.5
20260501174004 65 0 0.0 0.0 0.04 0.49 0.15 100 1009.5
20260501173504 65 0 0.0 0.0 0.04 0.49 0.15 100 1009.6
20260501173003 65 0 0.0 0.0 0.04 0.49 0.15 100 1009.6
20260501172503 65 0 0.0 0.0 0.03 0.48 0.14 100 1009.8
20260501172003 65 0 0.0 0.0 0.04 0.48 0.14 100 1010.0
20260501171717 64 0 0.0 0.0 0.04 0.48 0.14 100 1010.1
20260501171003 64 0 0.0 0.0 0.03 0.47 0.13 100 1009.9
20260501170503 64 0 0.0 0.0 0.04 0.47 0.13 100 1010.0
20260501170003 65 0 0.0 0.0 0.04 0.47 0.13 100 1011.7
20260501165505 66 0 0.0 0.0 0.03 0.46 0.12 100 1012.2
20260501165004 66 0 0.0 0.0 0.03 0.46 0.12 100 1010.7
20260501164504 66 0 0.0 0.0 0.04 0.46 0.12 100 1009.9
20260501164004 66 0 0.0 0.0 0.03 0.45 0.11 100 1009.3
20260501163503 66 0 0.0 0.0 0.04 0.45 0.11 100 1009.3